Regional Weather Roundup
Issued by NWS

Home | Current Version | Previous Version | Text Only | Print | Product List | Glossary Off
Versions: 1 2 3 4 5 6 7 8 9 10 11 12 13 14 15 16 17 18 19 20 21 22 23 24 25 26 27 28 29 30 31 32 33 34 35 36 37 38 39 40 41 42 43 44 45 46 47 48 49 50

000
ASUS43 KMKX 221110
RWRWI

WISCONSIN REGIONAL WEATHER ROUNDUP
NATIONAL WEATHER SERVICE MILWAUKEE/SULLIVAN WI
600 AM CDT SUN APR 22 2018

NOTE: "FAIR" INDICATES FEW OR NO CLOUDS BELOW 12,000 FEET WITH NO
SIGNIFICANT WEATHER AND/OR OBSTRUCTIONS TO VISIBILITY.

WIZ001-002-006>008-014>016-023>028-221200-
NORTHWEST WISCONSIN

CITY           SKY/WX    TMP DP  RH WIND       PRES   REMARKS
SUPERIOR ARPT  FAIR      23  21  92 SW3       30.36S
ASHLAND        FAIR      27  20  75 W6        30.36R WCI  20
HAYWARD        FAIR      25  20  81 CALM      30.36R
SIREN          FAIR      25  19  79 CALM      30.35R
CUMBERLAND     FAIR      27  19  74 CALM      30.35R
RICE LAKE      FAIR      27  26  95 CALM      30.37R
CHETEK         FAIR      26  23  90 CALM      30.36R
LADYSMITH      FAIR      32  26  78 CALM      30.37R
EAU CLAIRE     FAIR      28  26  92 CALM      30.35R
MENOMONIE      FAIR      31  28  87 CALM      30.35S
NEW RICHMOND   FAIR      31  28  89 CALM      30.34S
OSCEOLA        FAIR      30  26  86 CALM      30.38R
$$

WIZ003>005-009-010-017-018-221200-
NORTH CENTRAL WISCONSIN

CITY           SKY/WX    TMP DP  RH WIND       PRES   REMARKS
MANITOWISH WTR FAIR      22  22 100 CALM      30.35R
ARBOR VITAE    FAIR      25  20  79 CALM      30.35R
WOODRUFF       FAIR      25  20  79 CALM      30.35R
RHINELANDER    FAIR      27  23  85 CALM      30.35R
EAGLE RIVER    FAIR      22  18  82 CALM      30.35R
LAND O LAKES   FAIR      21  19  92 CALM      30.37R
PHILLIPS       FAIR      24  23  94 CALM      30.35R
TOMAHAWK       FAIR      22  19  91 CALM      30.37R
MEDFORD        FAIR      27  24  89 NE5       30.35R WCI  21
MERRILL          N/A     24  22  94 CALM      30.37R
$$

WIZ029-030-035-036-043>047-221200-
CENTRAL WISCONSIN

CITY           SKY/WX    TMP DP  RH WIND       PRES   REMARKS
WAUSAU         FAIR      28  25  88 CALM      30.35R
MOSINEE        PTCLDY    30  25  80 E3        30.37R
MARSHFIELD     FAIR      29  26  89 S5        30.34R WCI  24
STEVENS POINT  FAIR      23  22  94 CALM      30.37S
WAUPACA        FAIR      29  26  90 CALM      30.38S
WAUTOMA        FAIR      26  24  92 CALM      30.38R
WISC RAPIDS    FAIR      28  22  78 CALM      30.37R
CAMP DOUGLAS   FAIR      27  26  97 CALM      30.36R
$$

WIZ011>013-019>022-031-037>040-048>050-221200-
NORTHEAST WISCONSIN

CITY           SKY/WX    TMP DP  RH WIND       PRES   REMARKS
ANTIGO         FAIR      27  26  94 CALM      30.37R
SHAWANO        FAIR      30  26  87 CALM      30.38R
OCONTO         FAIR      27  24  90 CALM      30.38R
STURGEON BAY   FAIR      36  21  54 S6        30.39R WCI  31
GREEN BAY      FAIR      30  26  85 CALM      30.38S
MANITOWOC      FAIR      27  24  89 CALM      30.39S
APPLETON       CLEAR     36  28  75 CALM      30.36S
CLINTONVILLE   FAIR      27  24  85 CALM      30.37S
OSHKOSH        FAIR      33  32  96 CALM      30.37S FOG
$$

WIZ032>034-041-042-053>061-221200-
SOUTHWEST WISCONSIN

CITY           SKY/WX    TMP DP  RH WIND       PRES   REMARKS
LA CROSSE      FAIR      36  30  79 SE3       30.36R
SPARTA         FAIR      26  24  93 CALM      30.37S
VIROQUA        FAIR      42  32  68 S3        30.35R
BOSCOBEL       CLOUDY    39  35  86 CALM      30.36R
PRAIRIE DU CHI FAIR      39  34  81 CALM      30.34S
PLATTEVILLE    CLOUDY    42  30  62 NE9       30.33F
$$

WIZ056-057-062-063-064-067-068-221200-
SOUTH CENTRAL WISCONSIN

CITY           SKY/WX    TMP DP  RH WIND       PRES   REMARKS
REEDSBURG      FAIR      31  31 100 CALM      30.36S
BARABOO/DELLS  FAIR      30  28  90 CALM      30.36R
LONE ROCK      FAIR      36  34  92 CALM      30.37R
MINERAL POINT  CLOUDY    43  32  65 E3        30.35R
MADISON        MOCLDY    34  31  88 CALM      30.36R
MIDDLETON      FAIR      36  34  93 CALM      30.36S
WATERTOWN      FAIR      31  28  90 CALM      30.36S
MONROE         CLOUDY    41  23  48 NE6       30.34R
JANESVILLE     MOCLDY    39  28  65 CALM      30.35R
$$

WIZ051-052-058>065-066-070>072-221200-
SOUTHEAST WISCONSIN

CITY           SKY/WX    TMP DP  RH WIND       PRES   REMARKS
MILWAUKEE      MOCLDY    35  24  64 CALM      30.37R
WAUKESHA       CLEAR     30  25  80 CALM      30.37S
MILWAUKEE/TIMM FAIR      32  23  69 CALM      30.38S
RACINE         FAIR      34  23  64 CALM      30.38R
BURLINGTON     FAIR      36  28  75 CALM      30.37R
KENOSHA        FAIR      37  24  59 NE5       30.36R WCI  33
FOND DU LAC    FAIR      30  26  85 CALM      30.37S
SHEBOYGAN      FAIR      28  27  96 CALM      30.37S
WEST BEND      FAIR      28  28 100 CALM      30.37S
JUNEAU         FAIR      33  30  88 NE3       30.37S
$$

LSZ147-162-221200-
LAKE SUPERIOR

STATION/POSITION TIME  TEMP    WIND        PRES    WAVE
                       AIR SEA DIR/SP/G            HT/PER
                 (UTC) (F)     (DEG/KT/KT) (MB)    (FT/S)
DEVILS ISLAND    1100   36     100/  9/  9 1028.7R
SAXON HARBOR     1030   27     200/  3/  5 1027.1R
$$

LMZ867-665-643>646-221200-
LAKE MICHIGAN

STATION/POSITION TIME  TEMP    WIND        PRES    WAVE
                       AIR SEA DIR/SP/G            HT/PER
                 (UTC) (F)     (DEG/KT/KT) (MB)    (FT/S)
NORTHPORT PIER   1040   35                 1028.4R
KEWAUNEE LAKESHO 1042   30     290/  2/  3 1028.2R
SHEBOYGAN LAKESH 1000   37      20/  4/  4 1029.1R
PORT WASHINGTON  1040   32     290/  1/  3 1029.5R
MILWAUKEE LAKESH 1050   38      30/  5/  5   N/A
KENOSHA   LAKESH 1100   39                 1028.1
$$

TC  - TEMPERATURE IN CELSIUS
VSB - VISIBILITY IN STATUTE MILES
WCI - WIND CHILL INDEX
HX  - HEAT INDEX





USA.gov is the U.S. government's official web portal to all federal, state and local government web resources and services.